This demonstration page uses our WeatherBlox Daily Observations layout. Learn more.

Left ArrowRight Arrow

Hourly Observations for September 23, 2015

Temp ( °F °C ) Dew Point ( °F °C ) Humidity (%) Winds ( mph kmh ) Pressure ( in mb ) Visibility ( mi km ) Precip ( " mm )
12:53 am 00:53 Clear 72 22.2 66 18.9 82 82 SSE 12 19 29.98 1015 10 16 0.00 0.00
1:53 am 01:53 Clear 72 22.2 65 18.3 79 79 SSE 9 15 30.00 1016 10 16 0.00 0.00
2:53 am 02:53 Clear 71 21.7 65 18.3 81 81 S 6 9 30.01 1016 10 16 0.00 0.00
3:08 am 03:08 Mostly Clear with Nearby Thunderstorms 72 22 64 18 78 78 S 5 7 30.03 1017 10 16 0.00 0.00
3:23 am 03:23 Mostly Cloudy 72 22 64 18 78 78 WSW 7 11 30.03 1017 10 16 0.00 0.00
3:37 am 03:37 Cloudy with Nearby Thunderstorms 71 21.7 65 18.3 81 81 SW 7 11 30.03 1017 10 16 0.00 0.00
3:53 am 03:53 Cloudy with Nearby Thunderstorms 70 21.1 64 17.8 82 82 VRB 6 9 30.02 1017 10 16 0.00 0.03
4:53 am 04:53 Mostly Clear 67 19.4 64 17.8 91 91 NE 8 13 30.03 1017 10 16 0.00 0.03
5:53 am 05:53 Clear 67 19.4 63 17.2 87 87 ENE 8 13 30.02 1017 10 16 0.00 0.00
6:53 am 06:53 Clear 66 18.9 63 17.2 90 90 NE 3 6 30.01 1016 10 16 0.00 0.00
7:53 am 07:53 Mostly Sunny 66 18.9 62 16.7 87 87 E 6 9 30.04 1017 10 16 0.00 0.00
8:53 am 08:53 Mostly Sunny 66 18.9 63 17.2 90 90 E 9 15 30.04 1017 10 16 0.00 0.00
9:16 am 09:16 Partly Cloudy 67 19.4 64 17.8 91 91 E 10 17 30.06 1018 8 13 0.00 0.00
9:27 am 09:27 Mostly Cloudy 68 20 64 17.8 87 87 E 9 15 30.03 1017 8 13 0.00 0.00
9:53 am 09:53 Cloudy 68 20 64 17.8 87 87 E 13 20 30.05 1018 10 16 0.00 0.00
10:05 am 10:05 Cloudy 69 20.6 65 18.3 87 87 E 8 13 30.03 1017 10 16 0.00 0.00
10:53 am 10:53 Mostly Cloudy 71 21.7 66 18.9 84 84 ESE 8 13 30.05 1018 9 14 0.00 0.00
11:04 am 11:04 Partly Cloudy 72 22 66 19 83 83 ESE 7 11 30.03 1017 9 14 0.00 0.00
11:46 am 11:46 Mostly Cloudy 72 22.2 66 18.9 82 82 SE 12 19 30.03 1017 9 14 0.00 0.00
11:53 am 11:53 Mostly Cloudy 73 22.8 66 18.9 79 79 SE 9 15 30.04 1017 8 13 0.00 0.00
12:01 pm 12:01 Mostly Cloudy 73 22.8 66 18.9 79 79 ESE 7 11 30.03 1017 9 14 0.00 0.00
12:53 pm 12:53 Mostly Cloudy 76 24.4 65 18.3 69 69 S 9 15 30.03 1017 10 16 0.00 0.00
2:53 pm 14:53 Cloudy with Light Rain 74 23.3 63 17.2 69 69 S 13 20 29.99 1016 10 16 0.00 0.03
3:53 pm 15:53 Cloudy with Light Rain 73 22.8 64 17.8 74 74 SSE 10 17 29.97 1015 10 16 0.00 0.03
4:53 pm 16:53 Mostly Sunny 73 22.8 65 18.3 76 76 SSE 10 17 29.97 1015 10 16 0.00 0.03
5:53 pm 17:53 Partly Cloudy 73 22.8 64 17.8 74 74 SSE 12 19 29.97 1015 10 16 0.00 0.00
6:53 pm 18:53 Mostly Sunny 71 21.7 64 17.8 79 79 SE 14 22 29.94 1014 9 14 0.00 0.00
7:53 pm 19:53 Mostly Clear 70 21.1 65 18.3 84 84 SE 14 22 29.94 1014 10 16 0.00 0.00
8:53 pm 20:53 Partly Cloudy 70 21.1 64 17.8 82 82 SSE 15 24 29.93 1014 10 16 0.00 0.00
9:53 pm 21:53 Partly Cloudy with Nearby Thunderstorms 70 21.1 62 16.7 76 76 SSE 17 28 29.93 1013 10 16 0.00 0.03
10:22 pm 22:22 Partly Cloudy 70 21 61 16 73 73 SSE 15 24 29.91 1013 10 16 0.00 0.00
10:53 pm 22:53 Cloudy 70 21.1 61 16.1 73 73 S 16 26 29.93 1013 10 16 0.00 0.00
11:53 pm 23:53 Mostly Cloudy 70 21.1 61 16.1 73 73 S 14 22 29.93 1014 10 16 0.00 0.03

Powered by AerisWeather